Regional Weather Roundup
Issued by NWS

Home | Current Version | Previous Version | Text Only | Print | Product List | Glossary On
Versions: 1 2 3 4 5 6 7 8 9 10 11 12 13 14 15 16 17 18 19 20 21 22 23 24 25 26 27 28 29 30 31 32 33 34 35 36 37 38 39 40 41 42 43 44 45 46 47
000
ASUS45 KSLC 281510
RWRUT

UTAH REGIONAL WEATHER ROUNDUP
NATIONAL WEATHER SERVICE SALT LAKE CITY UT
900 AM MDT FRI AUG 28 2015

UTZ001>011-023>025-281600-

NORTHERN UTAH

CITY           SKY/WX    TMP DP  RH WIND       PRES   REMARKS
BRIGHAM CITY   SUNNY     64  49  59 NW3       30.21S
HILL AFB       MOSUNNY   65  44  45 E17       30.23S
LOGAN          SUNNY     60  51  72 CALM      30.24S
OGDEN          SUNNY     69  44  40 SW5       30.21R
PROVO AIRPORT  SUNNY     66  46  48 CALM      30.25S
SALT LAKE CITY MOSUNNY   72  49  44 S12       30.20R
VERNAL         SUNNY     66  41  40 E5        30.32R
WENDOVER       MOSUNNY   72  43  35 SW3       30.20R
HEBER CITY     SUNNY     55  43  62 CALM      30.34
WEST JORDAN    SUNNY     72  48  43 S9        30.24R

$$

UTZ012>022-026-027-281600-

SOUTHERN/CENTRAL UTAH

CITY           SKY/WX    TMP DP  RH WIND       PRES   REMARKS
BLANDING       SUNNY     73  47  38 NE3       30.36R
BRYCE CANYON   SUNNY     61  46  57 N5        30.44S
CEDAR CITY     SUNNY     63  51  65 NW5       30.28S
DELTA          SUNNY     67  43  41 CALM      30.24R
HANKSVILLE     SUNNY     68  52  56 CALM      30.26R
MILFORD        SUNNY     63  44  50 S9        30.25S
MOAB/CYNLANDS  SUNNY     73  51  46 E9        30.23R
PRICE          SUNNY     66  42  41 S3        30.33R
ST GEORGE      SUNNY     75  50  41 CALM      30.12S
KANAB          SUNNY     70  55  60 NE5       30.29S

$$

REGIONAL REPORTS     COLORADO/ARIZONA

CITY           SKY/WX    TMP DP  RH WIND       PRES   REMARKS
CRAIG, CO      SUNNY     56  51  84 CALM      30.39R
GRAND JUNCTION SUNNY     64  54  69 S9        30.29R
RIFLE          SUNNY     59  51  75 NE3       30.37R
MONTROSE       SUNNY     60  51  72 W5        30.36R
CORTEZ         SUNNY     64  49  57 CALM      30.29S
PAGE, AZ       SUNNY     77  51  40 SE3       30.19R
GRAND CANYON   SUNNY     70  51  51 CALM      30.35S
KINGMAN        SUNNY     81  56  42 CALM      30.11R
FLAGSTAFF      SUNNY     63  53  70 CALM      30.38R

$$

REGIONAL REPORTS    NEVADA/IDAHO/WYOMING

CITY           SKY/WX    TMP DP  RH WIND       PRES   REMARKS
LAS VEGAS, NV  MOSUNNY   88  51  28 CALM      29.97R
ELY            MOSUNNY   59  44  57 SE7       30.33S
ELKO           MOSUNNY   61  34  36 E5        30.23R
POCATELLO, ID  SUNNY     66  44  45 NE7       30.21S
BURLEY         SUNNY     60  46  59 E6        30.15S
EVANSTON, WY   MOSUNNY   59  39  47 S6        30.40R
ROCK SPRINGS   SUNNY     58  43  57 W5        30.38S
KEMMERER       SUNNY     59  41  51 N6        30.42R

$$



USA.gov is the U.S. government's official web portal to all federal, state and local government web resources and services.